Regional Weather Roundup
Issued by NWS

Home | Current Version | Previous Version | Graphics & Text | Print | Product List | Glossary On
Versions: 1 2 3 4 5 6 7 8 9 10 11 12 13 14 15 16 17 18 19 20 21 22 23 24 25 26 27 28
000
ASUS45 KPSR 201910
RWRAZ

ARIZONA HOURLY REGIONAL WEATHER ROUNDUP
NATIONAL WEATHER SERVICE PHOENIX AZ
1200 PM MST WED SEP 20 2017

NOTE: FAIR INDICATES FEW OR NO CLOUDS BELOW 12,000 FEET WITH NO
SIGNIFICANT WEATHER AND/OR OBSTRUCTIONS TO VISIBILITY.

AZZ001>003-036-202000-
NORTHWEST ARIZONA

CITY           SKY/WX    TMP DP  RH WIND       PRES   REMARKS
KINGMAN        SUNNY     85  35  16 SW22      29.90F
$$

AZZ004>008-015-016-018-202000-
NORTH CENTRAL ARIZONA

CITY           SKY/WX    TMP DP  RH WIND       PRES   REMARKS
GRAND CANYON   SUNNY     71  30  21 SW16G29   30.10F
WILLIAMS       SUNNY     70  28  21 S16G25    30.11F
PRESCOTT       SUNNY     78  30  17 S12G23    30.04F
FLAGSTAFF      SUNNY     67  27  22 SW16G28   30.15F
PAYSON           N/A     75  37  25 VRB3G16   30.10F
PAGE           SUNNY     80  35  19 VRB3      29.89F
$$

AZZ009>014-017-202000-
NORTHEAST ARIZONA

CITY           SKY/WX    TMP DP  RH WIND       PRES   REMARKS
WINSLOW        SUNNY     85  24  11 SW16G29   30.02F
SAINT JOHNS    SUNNY     81  19  10 SW12      30.07F
WINDOW ROCK    SUNNY     74  26  16 SW16G24   30.13F
SHOW LOW       SUNNY     73  34  23 S24G33    30.14F
$$

AZZ540-542>544-546-548-202000-
GREATER PHOENIX AREA

CITY           SKY/WX    TMP DP  RH WIND       PRES   REMARKS
PHOENIX        MOSUNNY   92  54  27 S8        29.83F
BUCKEYE        SUNNY     90  45  20 SE6       29.83F
GLENDALE       SUNNY     91  48  22 E6        29.85F
LUKE AFB       SUNNY     91  47  21 E5        29.83F
SCOTTSDALE     SUNNY     89  50  26 SE9       29.87F
MESA-FALCON    SUNNY     91  54  27 S9        29.86F
MESA-GATEWAY   SUNNY     91  54  27 S12G20    29.87F
CHANDLER       SUNNY     93  52  24 S14       29.84F
$$

AZZ539-553-202000-
SOUTHWEST MARICOPA COUNTY AND PINAL COUNTY

CITY           SKY/WX    TMP DP  RH WIND       PRES   REMARKS
CASA GRANDE    NOT AVBL
GILA BEND      SUNNY     94  45  18 VRB6      29.79F
$$

AZZ503-504-507>509-202000-
SOUTHEAST ARIZONA

CITY           SKY/WX    TMP DP  RH WIND       PRES   REMARKS
TUCSON         SUNNY     93  52  24 S21G29    29.95F
DAVIS-MONTHAN  SUNNY     92  51  24 S17G23    29.94F
RYAN FIELD     SUNNY     91  52  25 SW20G31   29.94F
NOGALES        SUNNY     87  58  37 S14G23    30.05F
SIERRA VISTA   MOSUNNY   85  48  27 SW16G24   30.10F
DOUGLAS        MOSUNNY   87  50  27 SW14G22   30.06F
SAFFORD        SUNNY     89  43  20 MISG      29.96F
$$

AZZ532-202000-
SOUTHWEST ARIZONA

CITY           SKY/WX    TMP DP  RH WIND       PRES   REMARKS
YUMA           SUNNY     92  58  31 CALM      29.76F
$$

CAZ041-043-047-048-061-525>527-560>570-202000-
SOUTHERN CALIFORNIA

CITY           SKY/WX    TMP DP  RH WIND       PRES   REMARKS
DOWNTOWN L.A.  MOSUNNY   78  57  48 VRB6      29.90S
L.A. AIRPORT   PTSUNNY   75  61  61 W9        29.90F
SAN DIEGO      PTSUNNY   71  58  63 S12       29.94F
BURBANK        MOSUNNY   73  53  49 E10       29.91F
ONTARIO        CLOUDY    71  56  58 W3        29.93F
RIVERSIDE      CLOUDY    72  57  59 VRB3      29.92F
PALM SPRINGS   SUNNY     87  51  28 NW16      29.79F
EL CENTRO NAS  SUNNY     90  43  19 E5        29.78F
IMPERIAL       SUNNY     89  48  24 VRB7      29.76F
BLYTHE         SUNNY     90  46  21 SE10G23   29.77F
NEEDLES        SUNNY     93  41  16 SW17      29.78F
$$

NVZ020-UTZ003-202000-
SOUTHERN NEVADA-UTAH

CITY           SKY/WX    TMP DP  RH WIND       PRES   REMARKS
LAS VEGAS      SUNNY     85  43  22 E6        29.78F
SALT LAKE CITY PTSUNNY   71  30  21 S18       29.84F
$$

NMZ009-TXZ055-202000-
NEW MEXICO-WEST TEXAS

CITY           SKY/WX    TMP DP  RH WIND       PRES   REMARKS
ALBUQUERQUE    SUNNY     79  24  13 SW10      30.07F
EL PASO        MOSUNNY   89  47  23 W13G21    30.02F
$$


........................KEY........................
SKY/WX - SKY CONDITION/WEATHER
TMP    - TEMPERATURE IN FAHRENHEIT
DP     - DEW POINT IN FAHRENHEIT
RH     - RELATIVE HUMIDITY IN PERCENT
WIND   - DIRECTION AND SPEED IN MILES PER HOUR (MPH)
VRB    - VARIABLE WIND DIRECTION
PRES   - MEAN SEA LEVEL PRESSURE IN INCHES OF MERCURY
         F - FALLING PRESSURE   R - RISING PRESSURE
         S - STEADY PRESSURE
VSB    - VISIBILITY IN MILES
HX     - HEAT INDEX IN FAHRENHEIT
WCI    - WIND CHILL INDEX IN FAHRENHEIT
TC     - TEMPERATURE IN CELSIUS WHICH IS ALSO KNOWN AS
         TEMPERATURE IN CENTIGRADE
AFB    - AIR FORCE BASE
         LUKE AFB IS LUKE AIR FORCE BASE
         DAVIS-MONTHAN IS DAVIS-MONTHAN AIR FORCE BASE
NAS    - NAVAL AIR STATION
         EL CENTRO NAS IS EL CENTRO NAVAL AIR STATION
N/A    - NOT AVAILABLE





USA.gov is the U.S. government's official web portal to all federal, state and local government web resources and services.